Regional Weather Roundup
Issued by NWS

Home | Current Version | Previous Version | Graphics & Text | Print | Product List | Glossary On
Versions: 1 2 3 4 5 6 7 8 9 10 11 12 13 14 15 16 17 18 19 20 21 22 23 24 25 26 27 28 29 30 31 32 33 34 35 36 37 38 39 40 41 42 43 44 45 46 47 48 49 50
000
ASUS43 KMKX 291410
RWRWI

WISCONSIN REGIONAL WEATHER ROUNDUP
NATIONAL WEATHER SERVICE MILWAUKEE/SULLIVAN WI
900 AM CDT SUN MAR 29 2015

NOTE: "FAIR" INDICATES FEW OR NO CLOUDS BELOW 12,000 FEET WITH NO
SIGNIFICANT WEATHER AND/OR OBSTRUCTIONS TO VISIBILITY.

WIZ001-002-006>008-014>016-023>028-291500-
NORTHWEST WISCONSIN

CITY           SKY/WX    TMP DP  RH WIND       PRES   REMARKS
SUPERIOR ARPT  CLOUDY    37  31  77 SW15G28   29.51S WCI  28
ASHLAND        CLOUDY    35  27  72 S22G28    29.55S WCI  23
HAYWARD        CLOUDY    33  28  81 S18G28    29.56F WCI  22
SIREN          CLOUDY    36  31  82 S17G25    29.56F WCI  25
CUMBERLAND     CLOUDY    32  30  93 S10       29.58F WCI  24
RICE LAKE      CLOUDY    33  30  88 S16       29.63F WCI  23
CHETEK         CLOUDY    32  30  92 S12G20    29.63F WCI  23
LADYSMITH      CLOUDY    32  28  86 S12       29.66F WCI  23
EAU CLAIRE     CLOUDY    33  28  81 S12       29.65F WCI  24
MENOMONIE      CLOUDY    34  32  92 S12       29.65F WCI  25
NEW RICHMOND   CLOUDY    34  32  92 S17       29.60F WCI  23
OSCEOLA        CLOUDY    35  32  89 S12       29.62F WCI  27
$$

WIZ003>005-009-010-017-018-291500-
NORTH CENTRAL WISCONSIN

CITY           SKY/WX    TMP DP  RH WIND       PRES   REMARKS
MANITOWISH WTR FLURRIES  29  26  88 S13G22    29.60F WCI  19
ARBOR VITAE    LGT SNOW  32  27  83 S20G26    29.61F WCI  20
WOODRUFF       LGT SNOW  32  27  83 S20G26    29.61F WCI  20
RHINELANDER    LGT SNOW  30  23  75 SW17G25   29.67F WCI  18
EAGLE RIVER    LGT SNOW  30  22  72 S10G20    29.63F WCI  21
LAND O LAKES   LGT SNOW  30  25  83 S10G20    29.61F WCI  21
PHILLIPS       FLURRIES  31  27  86 S15G21    29.63F WCI  20
TOMAHAWK       MIX PCPN  29  25  84 S9        29.67F WCI  21
MEDFORD        MIX PCPN  30  26  85 S14       29.68F WCI  19
MERRILL        LGT SNOW  30  26  83 S15G28    29.71F WCI  19
$$

WIZ029-030-035-036-043>047-291500-
CENTRAL WISCONSIN

CITY           SKY/WX    TMP DP  RH WIND       PRES   REMARKS
WAUSAU         MIX PCPN  30  25  81 S20G25    29.71F WCI  17
MOSINEE        FRZ RAIN  30  25  80 S15G21    29.75F WCI  19
MARSHFIELD     CLOUDY    32  26  78 S15       29.71F WCI  22
STEVENS POINT  MIX PCPN  29  24  81 S13G20    29.76F WCI  19
WAUPACA        CLOUDY    35  20  53 S16G24    29.81F WCI  26
WAUTOMA        FRZ RAIN  33  25  73 S14G20    29.82F WCI  23
WISC RAPIDS    FRZ RAIN  31  25  78 S13       29.77F WCI  21
CAMP DOUGLAS   LGT RAIN  34  32  93 S18G29    29.76F WCI  23
$$

WIZ011>013-019>022-031-037>040-048>050-291500-
NORTHEAST WISCONSIN

CITY           SKY/WX    TMP DP  RH WIND       PRES   REMARKS
ANTIGO         MIX PCPN  29  22  75 S17       29.72F WCI  17
SHAWANO        CLOUDY    34  19  55 S12G21    29.83F WCI  25
OCONTO         PTSUNNY   34  19  55 S14G23    29.85F WCI  24
STURGEON BAY   CLOUDY    34  18  51 S22G30    29.90F WCI  22
GREEN BAY      PTSUNNY   35  20  54 S18G31    29.87F WCI  24
MANITOWOC      PTSUNNY   34  18  52 S18G25    29.94F WCI  23
APPLETON       PTSUNNY   32  18  55 S21G29    29.86F WCI  20
CLINTONVILLE   CLOUDY    32  19  59 S16G26    29.83F WCI  21
OSHKOSH        CLOUDY    34  20  56 S23G31    29.86F WCI  22
$$

WIZ032>034-041-042-053>061-291500-
SOUTHWEST WISCONSIN

CITY           SKY/WX    TMP DP  RH WIND       PRES   REMARKS
LA CROSSE      CLOUDY    35  30  82 S15       29.76F WCI  25
SPARTA         CLOUDY    33  29  84 SW6       29.76F WCI  28
VIROQUA        CLOUDY    32  30  93 S12       29.78F WCI  23
BOSCOBEL       CLOUDY    35  28  75 S12G24    29.84F WCI  27
PRAIRIE DU CHI CLOUDY    34  28  79 S13G18    29.84S WCI  25
PLATTEVILLE    CLOUDY    32  29  87 SE13      29.86F WCI  22
$$

WIZ056-057-062-063-064-067-068-291500-
SOUTH CENTRAL WISCONSIN

CITY           SKY/WX    TMP DP  RH WIND       PRES   REMARKS
REEDSBURG      RAIN      32  28  84 S14G24    29.81F WCI  22
BARABOO/DELLS  MIX PCPN  32  27  80 S17G23    29.80F WCI  21
LONE ROCK      FRZ RAIN  33  27  78 S10G17    29.86F WCI  25
MINERAL POINT  RAIN      34  30  86 S13G23    29.84F WCI  25
MADISON        FRZ RAIN  34  22  61 S24G30    29.88F WCI  21
MIDDLETON      CLOUDY    34  23  63 S20G28    29.88F WCI  22
WATERTOWN      CLOUDY    32  20  61 S18G24    29.92F WCI  21
MONROE         MIX PCPN  32  27  80 S30G36    29.89F WCI  18
JANESVILLE     CLOUDY    36  19  51 S25G31    29.96F WCI  23
$$

WIZ051-052-058>065-066-070>072-291500-
SOUTHEAST WISCONSIN

CITY           SKY/WX    TMP DP  RH WIND       PRES   REMARKS
MILWAUKEE      CLOUDY    36  15  42 S18G32    30.01F WCI  26
WAUKESHA       SUNNY     32  16  51 S17G29    30.00F WCI  21
MILWAUKEE/TIMM SUNNY     34  12  40 S14G24    30.00F WCI  24
RACINE         PTSUNNY   36  15  42 S15G26    30.04F WCI  27
BURLINGTON     PTSUNNY   34  18  53 S15G29    30.00F WCI  24
KENOSHA        MOSUNNY   36  17  46 SW20G29   30.03F WCI  25
FOND DU LAC    CLOUDY    34  20  56 S23G32    29.88F WCI  22
SHEBOYGAN      PTSUNNY   34  19  54 S21       29.95F WCI  22
WEST BEND      CLOUDY    34  18  51 S10G24    29.95F WCI  26
JUNEAU         CLOUDY    32  19  58 S20G30    29.91F WCI  21
$$

LSZ147-162-291500-
LAKE SUPERIOR

STATION/POSITION TIME  TEMP    WIND        PRES    WAVE
                       AIR SEA DIR/SP/G            HT/PER
                 (UTC) (F)     (DEG/KT/KT) (MB)    (FT/S)
DEVILS ISLAND    1400   36     200/ 13/ 16 1000.2F
PORT WING        1320   37     200/ 14     1000.7F
SAXON HARBOR     1339   36     190/ 14/ 27 1000.0F
$$

LMZ867-665-643>646-291500-
LAKE MICHIGAN

STATION/POSITION TIME  TEMP    WIND        PRES    WAVE
                       AIR SEA DIR/SP/G            HT/PER
                 (UTC) (F)     (DEG/KT/KT) (MB)    (FT/S)
NORTHPORT PIER   1300   35     180/  8/ 21 1012.9F
SISTER BAY       1332   34     180/ 25/ 35   N/A
KEWAUNEE LAKESHO 1300   32     190/ 20/ 24 1014.0F
SHEBOYGAN LAKESH 1400   34     180/ 27/ 32 1015.1F
PORT WASHINGTON  1320   34     190/ 12/ 22 1016.6F
MILWAUKEE LAKESH 1300   33     180/ 16/ 20   N/A
KENOSHA   LAKESH 1400   36     210/ 16/ 24 1017.3F
$$

TC  - TEMPERATURE IN CELSIUS
VSB - VISIBILITY IN STATUTE MILES
WCI - WIND CHILL INDEX
HX  - HEAT INDEX




USA.gov is the U.S. government's official web portal to all federal, state and local government web resources and services.